FW7455 Weather Reports


time (UTC)temp
C
wind
direction
speed
KPH
gust
KPH
rain 1hr
cm
rain 24hr
cm
rain mn
cm
humidity
%
barometer
mb
20260508164540 20 328 3.2 16.1 0.00 0.38 0.00 43 1017.5
20260508163040 21 192 3.2 11.3 0.00 0.38 0.00 40 1017.7
20260508161546 22 0 1.6 8.0 0.00 0.38 0.00 40 1017.9
20260508160038 20 173 1.6 9.7 0.00 0.38 0.00 41 1018.2
20260508154538 20 306 1.6 6.4 0.00 0.38 0.00 40 1018.5
20260508153047 19 157 4.8 9.7 0.00 0.38 0.00 47 1018.4
20260508151539 18 225 6.4 14.5 0.00 0.38 0.00 48 1018.4
20260508150040 17 58 3.2 12.9 0.00 0.38 0.00 52 1018.6
20260508144555 18 215 3.2 12.9 0.00 0.38 0.00 49 1018.7
20260508143037 17 133 3.2 9.7 0.00 0.38 0.00 54 1018.7
20260508141551 16 192 4.8 9.7 0.00 0.38 0.00 53 1018.7
20260508140046 15 0 3.2 9.7 0.00 0.38 0.00 57 1018.9
20260508134542 15 191 1.6 6.4 0.00 0.41 0.00 58 1018.7
20260508133102 15 150 1.6 6.4 0.00 0.41 0.00 63 1018.8
20260508131534 13 57 1.6 6.4 0.00 0.41 0.00 70 1018.7
20260508130044 12 302 3.2 4.8 0.00 0.41 0.00 77 1018.5
20260508124539 11 282 0.0 3.2 0.00 0.58 0.00 92 1018.5
20260508123043 10 0 0.0 3.2 0.00 0.58 0.00 95 1018.4
20260508121537 8 279 0.0 3.2 0.00 0.58 0.00 95 1018.4
20260508120033 7 276 0.0 3.2 0.00 0.58 0.00 95 1018.1
20260508114538 7 279 0.0 3.2 0.00 0.84 0.00 94 1018.0
20260508113053 7 0 0.0 3.2 0.00 0.84 0.00 95 1017.8
20260508111535 6 0 0.0 1.6 0.00 0.84 0.00 94 1017.4
20260508110047 6 0 0.0 3.2 0.00 0.84 0.00 94 1017.2
20260508104539 6 284 1.6 3.2 0.00 0.84 0.00 94 1016.8
20260508103044 6 285 0.0 1.6 0.00 0.84 0.00 93 1016.3
20260508101535 6 285 0.0 4.8 0.00 0.84 0.00 93 1016.3
20260508100041 6 9 0.0 3.2 0.00 0.84 0.00 93 1016.1
20260508094539 6 9 1.6 3.2 0.00 0.84 0.00 93 1016.1
20260508093040 6 9 0.0 3.2 0.00 0.84 0.00 93 1016.0
20260508091552 6 9 1.6 3.2 0.00 0.84 0.00 93 1016.1
20260508090059 6 9 0.0 3.2 0.00 0.84 0.00 93 1016.0
20260508084539 7 0 0.0 3.2 0.00 0.89 0.00 92 1015.7
20260508083041 7 5 3.2 12.9 0.00 0.89 0.00 92 1015.8
20260508081544 7 188 1.6 6.4 0.00 0.89 0.00 92 1015.7
20260508080042 7 173 0.0 4.8 0.00 0.89 0.00 92 1015.7
20260508074543 7 132 0.0 3.2 0.00 0.89 0.00 91 1015.4
20260508073039 7 97 0.0 6.4 0.00 0.89 0.00 91 1015.5
20260508071546 8 0 0.0 3.2 0.00 0.89 0.00 91 1015.5
20260508070046 8 9 0.0 8.0 0.00 0.89 0.00 91 1015.2
20260508064539 8 245 1.6 4.8 0.00 0.91 0.00 90 1015.2
20260508063035 8 238 1.6 4.8 0.00 0.91 0.00 89 1015.1
20260508061550 8 238 1.6 3.2 0.00 0.91 0.00 88 1015.1
20260508060045 9 0 0.0 3.2 0.00 0.91 0.00 87 1015.2
20260508054539 9 0 1.6 3.2 0.00 0.97 0.00 87 1015.2
20260508053101 10 238 1.6 3.2 0.00 0.97 0.00 86 1015.1
20260508051541 10 238 0.0 3.2 0.00 0.97 0.00 86 1015.0
20260508050035 10 0 0.0 3.2 0.00 0.97 0.00 85 1014.9
20260508044543 10 0 0.0 3.2 0.00 1.04 0.00 85 1014.6
20260508043038 10 238 0.0 3.2 0.00 1.04 0.00 85 1014.6
20260508041604 10 236 0.0 3.2 0.00 1.04 0.00 85 1014.6
20260508040042 10 0 1.6 4.8 0.00 1.04 0.00 84 1014.6
20260508034540 11 257 1.6 6.4 0.00 1.04 1.04 82 1014.5
20260508033039 11 232 0.0 3.2 0.00 1.04 1.04 81 1014.4
20260508031539 11 229 0.0 4.8 0.00 1.04 1.04 80 1014.4
20260508030037 11 229 1.6 4.8 0.00 1.04 1.04 76 1014.5
20260508024550 12 228 1.6 4.8 0.00 1.14 1.04 77 1014.3
20260508023039 12 244 1.6 4.8 0.00 1.14 1.04 75 1014.0
20260508021540 12 239 1.6 4.8 0.00 1.14 1.04 71 1014.0
20260508020042 12 224 3.2 8.0 0.00 1.14 1.04 72 1013.6
20260508014535 13 28 0.0 8.0 0.00 1.32 1.04 70 1013.3
20260508013048 13 34 0.0 8.0 0.00 1.32 1.04 69 1013.1
20260508011550 14 346 1.6 9.7 0.00 1.32 1.04 66 1013.0
20260508010039 14 19 6.4 17.7 0.00 1.32 1.04 65 1012.5
20260508004542 14 355 6.4 17.7 0.00 1.52 1.04 66 1012.3
20260508003038 15 22 12.9 27.4 0.00 1.52 1.04 66 1011.9
20260508001549 15 348 8.0 17.7 0.00 1.52 1.04 68 1011.7
20260508000044 16 13 4.8 19.3 0.00 1.52 1.04 67 1011.5
20260507234539 16 340 6.4 27.4 0.00 1.55 1.04 67 1011.7
20260507233054 17 315 6.4 20.9 0.00 1.55 1.04 66 1011.6
20260507231538 18 28 11.3 24.1 0.00 1.55 1.04 66 1011.5
20260507230034 18 350 8.0 16.1 0.00 1.55 1.04 71 1011.1
20260507224548 20 331 0.0 6.4 0.00 1.57 1.04 79 1010.9
20260507223039 20 24 4.8 9.7 0.00 1.57 1.04 75 1010.6
20260507221539 21 52 3.2 16.1 0.00 1.57 1.04 72 1010.1
20260507220038 22 68 8.0 19.3 0.00 1.57 1.04 61 1009.8
20260507214540 23 327 8.0 22.5 0.00 1.57 1.04 58 1009.4
20260507213059 23 355 6.4 20.9 0.00 1.57 1.04 60 1009.1
20260507211539 25 5 6.4 17.7 0.00 1.57 1.04 59 1008.8
20260507210046 25 273 6.4 20.9 0.00 1.57 1.04 60 1008.5
20260507204534 25 355 3.2 16.1 0.00 1.57 1.04 62 1008.6
20260507203047 25 10 3.2 14.5 0.00 1.57 1.04 63 1008.2
20260507201546 25 34 1.6 14.5 0.00 1.57 1.04 69 1008.3
20260507200039 25 200 4.8 11.3 0.00 1.57 1.04 74 1008.1
20260507194609 23 205 4.8 12.9 0.03 1.57 1.04 78 1008.0
20260507193046 22 222 8.0 19.3 0.38 1.57 1.04 81 1008.5
20260507191547 21 255 9.7 16.1 0.38 1.57 1.04 86 1008.7
20260507190050 20 200 9.7 14.5 0.38 1.57 1.04 87 1008.8
20260507184539 22 221 1.6 8.0 0.36 1.55 1.02 81 1009.1
20260507183044 23 200 6.4 17.7 0.00 1.19 0.66 70 1008.8
20260507181535 24 214 9.7 17.7 0.00 1.19 0.66 69 1009.0
20260507180038 24 190 8.0 14.5 0.00 1.19 0.66 70 1008.8
20260507174552 23 209 8.0 17.7 0.00 1.19 0.66 73 1009.0
20260507173054 23 202 11.3 20.9 0.00 1.19 0.66 75 1009.2
20260507171544 22 214 11.3 20.9 0.00 1.19 0.66 78 1009.3
20260507170041 22 215 8.0 17.7 0.00 1.19 0.66 79 1009.5